Flag for Switzerland Weather past 2 weeks in Renens, Vaud, Switzerland

Now
47 °F

Cool.


Feels Like: 45 °F
Forecast: 45 / 54 °F
Wind: 6 mph from South

Location: Aigle

Current Time: Mar 30, 2015 at 10:12:37 AM

Latest Report: Mar 30, 2015 at 9:00 AM


Visibility: N/A

Pressure: 29.88 "Hg

Humidity: 85%

Dew point: 43 °F

Location of RenensLocation

Historic Weather in Renens — Graph

°F

Renens temperature yesterday

Maximum temperature yesterday: 51 °F (at 1:00 PM)
Minimum temperature yesterday: 44 °F (at 6:00 AM)
Average temperature yesterday: 48 °F

Past Weeks' High & Low Weather Summary

 TemperatureHumidityPressure
High60 °F (Mar 19, 4:00 PM)97% (Mar 30, 2:00 AM)30.32 "Hg (Mar 30, 2:00 AM)
Low30 °F (Mar 15, 7:00 AM)41% (Mar 15, 9:00 PM)29.59 "Hg (Mar 25, 1:00 PM)
Average46 °F76%30.05 "Hg
* Reported Mar 15 7:00 AM — Mar 30 8:00 AM, Renens, Weather by CustomWeather, © 2015

Note: Actual official high and low records may vary slightly from our data, if they occured in-between our weather recording intervals... More about our weather records

Advertising

Renens weather history for previous 24 hours

 ConditionsComfort  
Time TempWeatherWind HumidityBarometerVisibility
8:00 AM
Mon, Mar 30
47 °FLight rain. Overcast.8 mph87%29.88 "Hg14 mi
7:00 AM46 °FCool.7 mph94%29.89 "HgN/A
6:00 AM46 °FCool.7 mph94%29.88 "HgN/A
5:00 AM47 °FRain. Overcast.6 mph94%29.86 "Hg6 mi
4:00 AM47 °FCool.6 mph90%29.89 "HgN/A
3:00 AM47 °FCool.6 mph96%29.91 "HgN/A
2:00 AM47 °FCool.3 mph97%29.93 "HgN/A
1:00 AM48 °FCool.5 mph96%29.94 "HgN/A
12:00 AM48 °FCool.3 mph96%29.96 "HgN/A
10:00 PM
Sun, Mar 29
49 °FCool.7 mph95%29.96 "HgN/A
9:00 PM49 °FCool.6 mph95%29.98 "HgN/A
8:00 PM49 °FRain. Overcast.6 mph94%29.99 "Hg4 mi
7:00 PM50 °FCool.7 mph91%29.99 "HgN/A
6:00 PM50 °FCool.6 mph86%30.01 "HgN/A
5:00 PM51 °FLight rain. Overcast.3 mph85%30.04 "Hg11 mi
4:00 PM51 °FCool.3 mph85%30.04 "HgN/A
3:00 PM50 °FCool.8 mph82%30.04 "HgN/A
2:00 PM51 °FLight rain. Overcast.5 mph80%30.03 "Hg11 mi
1:00 PM51 °FCool.2 mph82%30.05 "HgN/A
12:00 PM51 °FCool.5 mph78%30.07 "HgN/A
11:00 AM49 °FPartly sunny.5 mph84%30.09 "Hg17 mi
10:00 AM48 °FCool.5 mph88%30.10 "HgN/A
Weather by CustomWeather, © 2015

See weather overviewHow to use our weather pages